Regional Weather Roundup
Issued by NWS Charleston, SC

Current Version | Previous Version | Graphics & Text | Print | Product List | Glossary On
Versions: 1 2 3 4 5 6 7 8 9 10 11 12 13 14 15 16 17 18 19 20 21 22 23 24 25 26 27 28 29 30 31 32 33 34 35 36 37 38 39 40 41 42 43 44 45 46 47 48 49 50
000 ASUS42 KCHS 251125 RWRCHS REGIONAL WEATHER ROUNDUP NATIONAL WEATHER SERVICE CHARLESTON SC 700 AM EDT FRI JUL 25 2014 NOTE: "FAIR" INDICATES FEW OR NO CLOUDS BELOW 12,000 FEET WITH NO SIGNIFICANT WEATHER AND/OR OBSTRUCTIONS TO VISIBILITY. NOT ALL STATIONS ARE QUALITY CONTROLLED BY THE NATIONAL WEATHER SERVICE. USE DATA WITH CAUTION...ESPECIALLY DEWPOINT OBSERVATIONS. SCZ027-030-031-034>040-042>050-251200- ...SOUTH CAROLINA... CITY SKY/WX TMP DP RH WIND PRES REMARKS N CHARLESTON PTCLDY 78 72 81 W6 29.99R WATERFRONT PRK N/A 79 N/A N/A SW6 N/A FORT JOHNSON NOT AVBL MOUNT PLEASANT FAIR 79 73 83 CALM 29.99R HAZE JOHNS ISLAND SUNNY 79 70 73 CALM 29.99R PINOPOLIS N/A 81 72 74 W6 29.90S MONCKS CORNER N/A 75 75 100 CALM 29.99R FOG SUMMERVILLE FAIR 73 73 100 CALM 30.00R BEAUFORT MCAS PTCLDY 78 73 84 W5 29.99R BEAUFORT ARPT FAIR 79 73 83 SW7 30.00R HILTON HEAD IS NOT AVBL GEORGETOWN NOT AVBL WALTERBORO SUNNY 75 N/A N/A CALM 30.00R ORANGEBURG CLEAR 74 71 91 CALM 29.98R BARNWELL FAIR 73 72 94 SW3 30.00R AIKEN FAIR 73 73 100 CALM 30.03R FOG MANNING FAIR 75 N/A N/A CALM 29.98R KINGSTREE NOT AVBL COLUMBIA PTCLDY 77 70 79 E6 29.98R SUMTER CLEAR 72 72 99 NE5 29.97R FLORENCE CLOUDY 73 71 93 NE7 29.98R FOG MYRTLE BEACH CLEAR 75 72 88 CALM 29.97S N MYRTLE BEACH MOCLDY 75 73 93 CALM 29.97S $$ GAZ063-065-086>088-099>101-113>116-118-119-134-136>141-150-251200- ...GEORGIA... CITY SKY/WX TMP DP RH WIND PRES REMARKS SAVANNAH ARPT PTCLDY 77 73 87 S7 30.01R HUNTER AAF CLEAR 76 74 94 SW3 30.00R FORT STEWART PTCLDY 76 73 91 SW5 30.01R STATESBORO NOT AVBL SYLVANIA SUNNY 75 75 100 CALM 30.01R CLAXTON FAIR N/A N/A N/A CALM 30.02R THOMSON CLEAR 73 73 100 CALM 30.04R AUGUSTA-BUSH CLEAR 73 70 90 CALM 29.98R AUGUSTA-DANIEL CLEAR 76 71 85 W3 30.00R SWAINSBORO FAIR 77 77 100 CALM 30.02R VIDALIA N/A 75 73 94 SW5 30.02R ALMA CLEAR 73 72 96 SW5 30.02R WAYCROSS CLEAR 77 77 99 W5 30.04R JESUP NOT AVBL BRUNSWICK CLEAR 79 73 83 CALM 30.05R SAINT SIMONS CLEAR 77 74 90 W5 30.03R $$ SCZ027-028-034-036>038-045-046-048>050-GAZ119-141-251200- ...LAKE AND SUPPLEMENTAL COASTAL OBSERVATIONS... STATION/POSITION TIME TEMP WIND PRES WAVE SWELL AIR SEA DIR/SP/G HT/PER HT/PER/DIR (UTC) (F) (DEG/KT/KT) (MB) (FT/S) (FT/S/D) UPR LAKE MARION NOT AVBL WINYAH BAY 1100 75 CALM 1014.0S LAKE MURRAY 1100 74 30/ 4/ 6 1015.2R ACE BASIN NERRS 1100 77 250/ 2 1015.0S FORT PULASKI 1100 78 230/ 6/ 9 1016.4R SAPELO ISLAND 1100 79 240/ 10 1017.0S $$ ANZ835-935-AMZ111-154-330-350-352-354-374-450-454-472-251200- ...C-MAN AND BUOY OBSERVATIONS... STATION/POSITION TIME TEMP WIND PRES WAVE SWELL AIR SEA DIR/SP/G HT/PER HT/PER/DIR (UTC) (F) (DEG/KT/KT) (MB) (FT/S) (FT/S/D) FOLLY BEACH CMAN 1100 79 250/ 5/ 9 1015.9R BUOY 41004 1100 83 82 260/ 10/ 12 1014.4R 4/ 6 3/ 6 BUOY 41008 1100 81 84 270/ 16/ 17 1016.0R 3/ 4 5E ST. MARYS GA 1100 85 N/A 2/ 4 FRYING PAN BUOY NOT AVBL BUOY 41025 1100 VRB 14/ 16 1014.8R 3/ 6 2/160/ 6 CAPE LOOKOUT NC 1100 71 350/ 10/ 14 1015.5R BUOY 41002 0956 82 82 240/ 19/ 23 1017.5R 5/ 6 2/180/11 BUOY 41010 1100 83 83 220/ 12/ 14 1018.3R 3/ 8 2/130/ 8 BUOY 41012 NOT AVBL ST AUGUSTINE FL 1100 76 230/ 4/ 5 1018.4R CAPERS NEARSHORE 1000 82 280/ 10/ 12 N/A FRIPP NEARSHORE NOT AVBL $$

USA.gov is the U.S. government's official web portal to all federal, state and local government web resources and services.